Location: Berlin
(38.3226°N, 75.2177°W)
Time: 15:45:18
(UTC+00:00)

Cosmos 2279 Rocket - Pass Details

Date: 26 October 2020
Orbit: 963 x 980 km, 82.9° (Epoch: 25 November)

Event Time Altitude Azimuth Distance (km) Brightness Sun altitude
Rises 09:43:04 0° 344° (NNW) 3,663 6.8 -19.9°
Reaches altitude 10° 09:45:45 10° 336° (NNW) 2,710 6.1 -19.3°
Maximum altitude 09:51:19 36° 272° (W) 1,471 4.4 -18.2°
Drops below altitude 10° 09:56:52 10° 207° (SSW) 2,691 6.1 -17.2°
Sets 09:59:32 0° 199° (SSW) 3,633 6.8 -16.6°
